Temperature
14 14 13 13 13 13 13 13 13 13 13 13 13 12 12 12 12 12 12 12 12 12 12 12 12 12 12 12 12 12 12 12 12 13 13 13 12 12 12 12 12 12 12
14 14 13 13 13 13 13 13 13 13 13 13 12 12 12 13 12 12 12 12 12 12 12 12 12 12 12 12 12 12 12 12 12 12 12 12 12 12 12 12 12 12 12
14 14 13 13 13 13 13 13 13 13 13 13 12 12 12 12 12 12 12 12 12 12 12 12 12 12 12 12 12 12 12 12 12 12 12 12 12 12 12 11 11 12 12
14 14 13 13 13 13 13 13 13 13 13 13 12 12 12 12 12 12 12 12 12 12 12 12 12 12 12 12 11 11 11 11 11 11 12 12 11 11 11 11 11 11 11
14 14 13 13 13 13 13 13 13 13 13 13 12 12 12 12 12 12 12 12 12 12 12 12 12 12 12 12 11 11 11 11 11 11 11 11 11 11 11 11 11 11 11
14 14 14 13 13 13 13 13 13 13 13 12 12 12 12 12 13 12 12 12 12 12 12 12 12 12 12 12 12 11 11 11 11 11 11 11 11 11 11 11 11 11 11
14 14 13 13 13 13 13 13 13 13 13 12 12 12 12 12 12 13 12 12 12 12 12 12 12 12 11 11 11 11 11 11 11 11 11 11 11 10 10 10 10 10 10
14 14 13 13 13 13 13 13 13 13 13 12 12 12 12 12 12 12 12 12 12 12 12 11 11 11 11 11 11 11 11 11 11 10 10 10 10 10 10 10 10 10 10
14 13 13 13 13 13 13 13 13 12 12 12 12 12 12 12 12 12 12 12 12 11 11 11 11 11 11 11 11 11 11 11 10 10 10 10 10 10 10 10 10 10 10
13 13 13 13 13 13 13 13 12 12 12 12 12 12 12 12 12 12 12 12 12 11 11 11 11 11 11 11 11 10 10 10 10 10 10 10 10 10 10 10 9 9 10
13 13 13 13 13 13 13 13 12 12 12 12 12 12 12 12 12 12 12 12 11 11 11 11 11 11 11 11 11 10 10 10 10 10 10 10 10 10 9 9 9 9 9
13 13 13 13 13 13 13 12 12 12 12 12 12 12 12 12 12 12 12 12 11 11 11 11 11 11 10 10 10 10 10 10 10 10 10 10 10 9 9 9 9 9 9
13 13 13 13 13 13 12 12 12 12 12 12 12 12 12 12 12 12 12 11 11 11 10 10 10 10 10 10 10 10 10 10 9 9 9 9 9 9 9 9 9 9 9
13 13 12 12 12 12 12 12 12 12 12 12 12 12 12 12 11 11 11 11 11 11 10 10 10 10 10 9 9 9 9 9 9 9 9 9 9 9 9 9 8 8 8
12 12 12 12 12 12 12 12 12 12 12 12 12 12 12 12 11 11 11 11 11 11 10 10 10 10 10 9 9 9 9 9 9 9 8 9 9 9 9 8 8 8 8
12 12 12 12 12 12 12 12 12 11 11 11 11 11 11 11 11 11 11 11 11 10 10 10 10 10 10 10 10 9 9 9 9 8 8 8 8 8 8 8 8 8 8
12 12 12 12 12 12 12 12 12 12 12 11 11 11 11 11 11 11 11 11 10 10 10 10 10 10 10 9 9 9 9 9 8 8 8 8 8 8 8 8 8 8 8
12 12 12 12 12 12 12 12 12 12 12 12 12 11 11 11 11 11 11 10 10 10 10 10 10 10 10 9 9 9 9 8 8 8 8 8 8 8 8 8 8 8 8
11 12 12 12 12 12 12 12 12 12 12 12 12 11 11 11 11 10 10 10 10 10 10 10 10 10 10 9 9 9 9 8 8 8 8 8 8 8 8 8 8 8 8
11 11 11 11 12 12 12 12 12 12 12 12 12 12 11 11 11 11 10 10 10 10 10 10 10 9 9 9 9 9 9 8 8 8 8 8 8 8 8 8 8 8 8
11 11 11 11 11 12 12 12 12 12 12 12 12 11 11 11 11 11 11 10 10 10 10 10 9 9 9 9 9 9 9 9 8 8 8 8 8 8 8 8 8 8 8
11 11 11 11 11 11 11 11 12 12 12 11 11 11 11 11 11 11 11 10 10 10 9 9 9 9 9 9 9 8 8 8 8 8 8 8 8 8 8 8 8 8 8
10 10 10 11 11 11 11 11 11 11 11 11 11 11 11 11 11 10 10 10 9 9 9 9 9 9 9 8 8 8 8 8 8 8 8 8 8 8 8 7 8 8 7
10 10 10 10 10 10 10 11 11 11 11 11 11 11 10 10 10 10 10 9 9 9 9 9 8 8 8 8 8 8 8 7 7 7 7 7 7 7 7 7 7 7 7
10 10 10 10 10 10 10 10 10 10 10 10 10 10 10 10 10 10 9 9 9 9 9 8 8 8 8 8 8 8 8 8 7 7 7 7 7 7 7 7 7 7 7
9 9 9 9 9 9 9 9 9 10 10 10 10 10 10 10 9 9 9 9 9 9 8 8 8 8 8 8 7 7 8 7 7 7 7 7 7 7 7 7 7 7 7
Wind_Speed
4 4 3 4 4 4 4 4 4 4 5 5 5 5 6 6 6 6 6 6 7 6 6 6 6 6 5 4 4 5 6 6 7 6 4 3 4 5 4 6 7 7 8
4 4 4 4 4 4 4 4 4 4 5 5 5 5 6 5 5 5 6 6 6 6 6 6 6 5 5 5 4 5 5 5 6 7 5 4 4 5 5 5 6 6 7
5 5 4 4 4 4 4 4 4 4 5 5 5 5 5 5 5 5 6 6 6 6 6 6 6 6 6 5 5 5 5 5 5 6 6 4 4 4 4 5 6 5 6
5 5 5 4 4 5 5 4 4 5 5 5 5 5 5 5 6 6 6 6 6 6 6 6 6 7 6 6 5 5 5 5 6 6 5 4 4 4 4 5 5 4 5
5 5 5 4 4 5 4 4 4 4 5 5 5 6 6 5 5 5 5 6 6 6 6 6 6 5 5 5 5 5 5 5 5 5 5 4 4 3 4 4 5 4 4
5 5 4 4 4 4 4 4 4 4 4 4 5 5 6 4 2 3 5 6 6 6 6 6 6 5 6 7 6 6 5 6 6 5 5 5 5 5 4 4 4 5 5
4 4 4 4 4 4 4 3 3 4 4 4 5 5 5 4 4 5 5 6 6 5 5 5 5 4 5 6 7 10 8 8 7 6 7 6 6 5 5 5 5 5 6
4 4 4 5 4 4 4 4 4 4 4 4 4 5 5 4 5 5 5 6 5 5 5 5 5 5 5 5 6 6 6 6 7 7 7 7 6 6 6 6 6 6 7
4 4 4 4 4 4 4 3 3 3 4 4 4 4 5 4 5 5 5 5 5 5 5 5 5 5 2 3 6 6 6 5 5 5 4 4 4 4 5 5 6 6 6
3 4 4 4 4 4 4 3 3 4 4 4 4 4 5 4 4 5 6 5 5 5 5 4 3 3 1 2 5 5 5 5 4 3 4 5 6 5 6 6 6 6 6
3 3 3 4 4 4 3 3 3 4 4 5 4 4 4 4 4 6 6 5 5 5 4 4 2 4 2 3 5 5 5 5 4 4 4 3 3 3 4 5 5 5 5
3 3 3 3 3 3 3 3 4 4 5 5 5 4 4 4 3 5 7 7 6 5 4 4 0 5 3 4 4 4 5 5 4 3 3 3 3 3 3 3 4 5 5
3 3 3 3 3 3 3 4 4 4 4 4 4 4 3 3 4 7 8 8 7 5 4 2 1 3 4 5 5 6 6 4 3 3 4 4 4 3 3 3 4 5 6
3 3 4 4 3 3 3 4 4 4 4 4 4 3 3 3 3 2 3 4 7 6 4 3 6 7 7 4 4 4 4 3 4 4 4 4 3 3 3 4 4 4 5
4 4 4 4 4 3 4 3 4 3 3 4 4 3 3 3 0 1 2 2 2 2 3 4 4 3 3 3 3 3 3 4 4 4 4 4 4 4 4 3 4 4 4
4 4 4 4 3 4 4 4 3 3 3 3 4 5 3 0 2 1 2 2 2 2 3 4 3 3 3 3 3 3 3 4 4 4 4 4 4 4 4 4 4 4 5
4 4 4 4 4 4 4 4 3 4 5 5 6 6 6 3 2 3 4 4 5 5 4 4 3 3 3 3 3 3 3 3 4 4 4 4 4 4 4 4 4 4 5
5 4 4 4 4 4 4 4 4 4 3 3 5 8 8 6 5 5 5 4 4 5 4 4 4 3 3 3 3 3 3 3 3 3 4 4 4 4 5 5 5 6 6
4 4 3 4 4 4 4 5 5 5 4 3 2 4 7 7 7 5 6 4 4 4 4 4 3 3 3 3 3 3 3 3 3 3 4 4 5 5 5 5 5 5 6
4 3 3 4 4 4 4 4 4 4 4 3 3 3 3 4 4 4 5 4 4 4 4 4 3 3 3 3 3 3 3 3 4 4 4 5 5 5 6 6 6 6 5
3 2 3 4 3 3 4 4 4 4 3 3 3 2 2 4 4 4 4 4 4 4 4 4 3 4 4 3 3 4 4 4 4 4 4 4 5 5 5 5 5 6 6
2 2 2 2 3 3 4 4 4 3 4 4 3 3 4 5 4 4 3 3 4 4 3 3 4 4 4 4 4 4 4 4 4 4 5 5 4 5 5 5 5 5 5
2 3 3 3 3 3 4 3 3 3 4 4 4 3 3 4 4 4 4 3 3 3 3 4 4 4 4 4 4 5 5 5 4 4 5 5 5 5 5 5 6 6 6
3 3 3 3 3 3 3 3 3 3 4 4 4 4 4 4 4 4 4 3 3 4 3 3 4 4 5 5 4 4 3 4 5 5 6 6 6 6 5 5 6 6 6
3 3 3 3 3 3 3 3 4 4 4 4 4 5 5 4 5 4 4 3 4 4 4 4 4 4 5 6 5 3 2 2 4 5 6 6 6 6 6 6 6 6 6
3 3 3 3 3 3 3 3 4 4 4 4 4 5 5 5 4 4 4 3 4 4 4 4 4 4 5 4 3 2 1 2 3 5 6 5 5 5 6 5 7 6 6
Wind_Direction
198 204 213 218 221 225 228 228 226 225 218 217 219 222 226 227 226 228 235 231 231 233 233 234 237 244 246 249 247 250 250 251 256 263 265 256 248 260 257 255 250 245 227
197 204 209 217 222 228 228 228 222 221 221 217 217 220 226 223 221 225 232 234 232 235 235 234 236 234 233 248 252 252 255 256 254 259 260 257 249 254 258 259 256 248 249
197 202 203 213 218 226 230 229 226 220 219 218 217 218 224 224 222 228 236 240 239 240 240 240 240 237 234 238 245 253 255 253 252 253 255 254 255 254 254 255 257 256 256
201 204 207 212 214 220 224 225 229 226 222 219 221 225 228 231 230 234 240 242 241 242 245 246 243 240 239 241 244 250 255 256 251 249 251 251 246 244 243 253 256 249 252
206 210 212 211 212 218 221 226 232 229 225 223 225 226 229 230 231 236 244 243 238 239 241 243 242 241 247 251 257 255 252 254 254 252 256 260 258 255 253 257 261 263 254
209 210 208 211 212 215 217 220 224 225 226 224 228 229 232 237 172 221 250 251 247 244 245 245 241 230 226 222 239 255 264 256 260 264 262 265 270 268 270 269 266 262 266
207 208 204 206 209 213 216 216 217 219 220 225 230 234 236 227 179 208 237 249 245 245 246 249 254 246 236 248 228 221 234 243 250 259 267 272 273 275 272 268 264 266 271
203 209 207 205 207 210 213 218 217 220 225 231 238 243 242 226 177 205 227 234 244 244 246 251 258 263 258 262 261 252 245 237 233 242 258 267 275 282 269 266 266 261 264
202 209 209 209 211 214 219 221 221 222 229 237 235 242 244 229 176 193 225 238 239 245 250 251 257 256 265 259 257 259 259 250 219 211 237 261 287 296 285 268 260 258 261
207 215 209 206 211 218 225 226 223 225 231 241 242 246 248 247 170 186 219 244 248 251 244 236 216 240 273 238 255 263 265 271 270 253 233 236 245 240 230 243 255 260 262
208 211 204 206 211 216 222 225 229 231 234 238 244 246 242 240 188 182 207 246 263 267 266 256 227 151 197 236 255 262 272 283 275 265 263 257 246 243 236 230 238 251 257
203 204 201 206 217 207 212 226 234 240 235 232 233 240 236 221 215 187 195 225 268 269 273 272 214 139 187 228 244 267 273 267 259 262 271 276 274 276 271 261 241 242 247
197 200 205 206 214 220 225 229 233 233 247 251 244 243 243 230 193 181 192 207 224 245 266 324 323 203 222 228 220 239 249 248 255 260 267 273 275 275 265 250 238 235 241
204 207 211 207 214 218 238 240 245 246 248 251 256 259 257 243 244 218 212 211 211 229 244 215 207 221 232 248 236 223 235 248 255 264 272 277 278 271 259 255 250 240 244
213 217 220 214 214 221 226 236 243 247 262 270 273 270 266 261 346 33 280 262 260 250 253 248 250 239 232 236 243 244 242 237 243 256 263 266 267 265 266 261 257 256 257
219 220 224 223 219 227 228 219 187 220 179 218 251 270 275 292 113 159 223 265 271 246 248 250 254 255 251 251 249 243 238 244 247 251 256 261 266 269 268 266 258 254 259
233 231 238 237 230 232 233 240 232 204 200 215 219 223 239 255 234 215 206 214 228 214 232 248 253 256 263 261 259 256 254 251 252 250 254 256 258 262 265 268 267 262 261
238 229 238 245 246 245 243 245 248 255 244 238 209 202 205 211 217 213 199 199 222 214 240 253 257 260 268 270 266 266 264 257 250 248 251 255 258 260 262 266 266 267 266
248 243 241 259 260 254 248 248 248 249 255 258 242 184 187 192 189 190 192 229 249 245 248 255 259 260 262 263 263 264 267 264 262 259 251 253 258 260 265 270 270 264 266
244 243 247 257 256 253 250 251 250 248 249 252 255 251 196 198 212 197 208 239 255 259 258 255 259 263 263 264 260 259 258 260 258 258 262 262 260 260 262 265 270 266 261
259 228 219 246 252 257 257 253 252 253 252 255 260 262 257 241 241 237 230 232 250 261 261 262 258 255 253 255 263 265 267 273 271 272 271 265 263 261 262 263 265 266 264
296 287 266 263 266 266 266 260 259 261 263 263 263 221 199 240 254 254 244 239 246 257 265 263 260 260 261 264 265 263 266 269 272 271 268 266 260 262 265 268 269 274 275
288 291 286 273 268 264 262 266 266 266 264 264 260 261 244 245 255 259 259 256 255 259 261 251 251 260 265 264 267 271 273 275 275 276 274 269 265 263 263 267 272 276 276
296 299 296 288 278 274 275 276 278 279 279 277 271 267 267 263 258 258 256 253 251 255 257 254 257 266 275 277 274 270 278 289 280 266 265 267 266 266 266 269 273 277 278
306 318 309 295 281 275 275 278 278 275 274 276 274 269 264 263 259 254 251 252 256 258 261 258 257 265 272 274 279 289 353 316 285 282 266 262 264 266 270 272 274 277 279
309 317 311 305 298 291 289 284 276 276 275 276 276 276 273 267 262 261 258 257 263 265 263 259 256 262 271 271 276 329 301 250 253 270 269 261 262 269 276 276 277 274 277
Height
1491 1491 1492 1492 1493 1493 1494 1494 1494 1494 1494 1495 1495 1496 1497 1498 1498 1499 1500 1500 1500 1501 1501 1501 1501 1501 1502 1502 1502 1502 1502 1502 1502 1501 1501 1501 1500 1500 1500 1500 1500 1500 1500
1489 1489 1490 1490 1490 1491 1491 1491 1491 1491 1492 1493 1493 1494 1495 1495 1496 1497 1497 1498 1498 1498 1498 1498 1498 1498 1498 1498 1498 1498 1498 1498 1498 1497 1497 1497 1496 1496 1496 1496 1496 1496 1496
1487 1488 1488 1488 1488 1488 1489 1489 1489 1489 1490 1491 1491 1492 1492 1493 1494 1494 1494 1495 1495 1495 1495 1495 1495 1495 1495 1495 1495 1495 1494 1494 1494 1494 1493 1493 1493 1493 1493 1492 1493 1492 1492
1485 1486 1486 1486 1486 1487 1487 1487 1487 1487 1487 1488 1489 1489 1490 1491 1491 1492 1492 1492 1492 1493 1493 1492 1492 1492 1492 1492 1492 1491 1491 1490 1490 1490 1490 1490 1490 1490 1490 1489 1489 1489 1489
1483 1484 1484 1484 1484 1485 1485 1485 1485 1485 1485 1486 1486 1487 1488 1488 1489 1489 1489 1489 1489 1490 1490 1490 1490 1489 1489 1489 1489 1489 1488 1488 1487 1487 1487 1487 1487 1487 1486 1486 1486 1486 1485
1481 1482 1483 1483 1483 1483 1483 1483 1483 1483 1483 1484 1484 1485 1485 1486 1485 1485 1486 1486 1487 1487 1487 1487 1487 1486 1486 1486 1486 1485 1485 1485 1485 1484 1484 1484 1483 1483 1483 1483 1483 1482 1482
1479 1480 1480 1481 1481 1481 1481 1481 1481 1481 1481 1481 1482 1482 1482 1482 1482 1483 1483 1483 1484 1484 1484 1484 1484 1484 1484 1483 1483 1482 1482 1481 1481 1481 1481 1480 1480 1480 1480 1480 1479 1479 1478
1476 1477 1478 1479 1479 1480 1479 1479 1479 1479 1479 1479 1479 1479 1479 1480 1480 1480 1480 1480 1481 1480 1481 1481 1481 1481 1481 1480 1480 1480 1479 1479 1478 1478 1478 1477 1477 1477 1477 1476 1476 1475 1475
1474 1475 1476 1477 1477 1478 1478 1477 1477 1477 1477 1477 1477 1477 1477 1477 1477 1477 1478 1478 1478 1478 1478 1478 1478 1478 1477 1477 1477 1476 1476 1476 1476 1475 1474 1474 1473 1473 1473 1473 1472 1473 1472
1472 1473 1474 1474 1475 1475 1475 1475 1475 1475 1475 1476 1476 1475 1475 1475 1475 1475 1475 1475 1476 1476 1475 1475 1474 1474 1474 1473 1473 1473 1473 1473 1473 1472 1471 1470 1470 1469 1469 1469 1469 1469 1469
1471 1471 1472 1472 1473 1473 1473 1473 1473 1474 1474 1473 1473 1473 1473 1473 1473 1473 1473 1473 1473 1473 1473 1473 1472 1471 1471 1470 1470 1470 1469 1469 1469 1469 1468 1468 1467 1466 1465 1465 1464 1465 1465
1469 1469 1469 1470 1471 1471 1471 1471 1472 1472 1472 1471 1471 1471 1471 1471 1471 1470 1470 1470 1470 1470 1470 1470 1469 1468 1467 1467 1466 1466 1466 1466 1466 1466 1465 1464 1464 1463 1462 1462 1461 1461 1461
1466 1467 1467 1468 1468 1469 1469 1469 1469 1469 1469 1469 1469 1469 1469 1469 1469 1468 1468 1467 1467 1466 1466 1466 1465 1465 1464 1464 1463 1463 1463 1463 1463 1463 1462 1461 1461 1460 1459 1459 1458 1458 1457
1464 1464 1465 1466 1466 1466 1466 1467 1467 1467 1467 1467 1467 1467 1467 1467 1467 1466 1466 1465 1465 1464 1464 1463 1462 1462 1461 1461 1461 1461 1460 1460 1460 1460 1459 1459 1458 1458 1457 1456 1455 1455 1455
1462 1462 1463 1464 1464 1464 1464 1464 1464 1464 1465 1465 1465 1465 1465 1464 1464 1463 1463 1463 1462 1462 1461 1461 1460 1460 1459 1459 1458 1458 1458 1457 1457 1457 1456 1456 1456 1455 1454 1453 1452 1452 1452
1460 1460 1461 1461 1461 1462 1462 1462 1461 1462 1461 1461 1461 1462 1462 1462 1461 1461 1461 1460 1460 1459 1459 1458 1458 1458 1457 1457 1456 1456 1455 1455 1454 1454 1454 1453 1453 1452 1452 1451 1450 1450 1449
1457 1458 1458 1458 1459 1459 1459 1459 1459 1459 1458 1458 1458 1458 1458 1459 1458 1458 1458 1458 1457 1456 1456 1456 1456 1455 1455 1455 1454 1453 1453 1452 1452 1451 1451 1451 1450 1450 1449 1448 1447 1447 1446
1455 1455 1455 1456 1456 1456 1456 1456 1456 1456 1456 1456 1455 1455 1455 1455 1456 1456 1455 1455 1455 1454 1454 1454 1454 1453 1453 1452 1451 1451 1450 1450 1449 1449 1448 1448 1448 1447 1447 1446 1445 1444 1443
1453 1453 1453 1453 1453 1453 1453 1453 1453 1453 1453 1453 1453 1453 1453 1453 1453 1453 1452 1453 1453 1452 1452 1452 1452 1451 1450 1450 1449 1448 1448 1447 1446 1446 1445 1445 1445 1444 1443 1443 1442 1441 1440
1450 1450 1450 1450 1450 1451 1451 1451 1451 1451 1450 1450 1451 1451 1451 1450 1450 1450 1450 1450 1450 1450 1450 1449 1449 1448 1448 1447 1447 1446 1445 1445 1444 1443 1443 1442 1441 1441 1440 1439 1438 1438 1437
1448 1448 1448 1448 1448 1448 1448 1448 1448 1448 1448 1448 1448 1448 1448 1448 1448 1448 1447 1447 1447 1447 1447 1447 1446 1446 1445 1444 1444 1443 1443 1442 1442 1441 1440 1439 1438 1437 1437 1436 1435 1434 1433
1446 1446 1446 1446 1446 1446 1446 1446 1446 1445 1445 1446 1446 1445 1445 1445 1445 1445 1445 1444 1444 1444 1444 1443 1443 1443 1442 1442 1441 1440 1440 1439 1438 1437 1437 1436 1435 1434 1434 1433 1432 1431 1430
1444 1444 1444 1444 1444 1444 1444 1443 1443 1443 1443 1443 1443 1443 1442 1442 1442 1442 1442 1441 1441 1441 1440 1440 1440 1439 1439 1438 1437 1437 1436 1435 1434 1433 1433 1432 1432 1431 1431 1430 1429 1428 1427
1443 1442 1442 1441 1441 1441 1441 1441 1441 1441 1441 1440 1440 1440 1440 1440 1439 1439 1439 1438 1438 1437 1437 1437 1436 1435 1434 1434 1433 1432 1431 1430 1429 1429 1428 1428 1428 1428 1427 1426 1425 1424 1424
1441 1440 1440 1439 1439 1439 1439 1439 1439 1438 1438 1438 1437 1437 1437 1437 1436 1436 1435 1435 1434 1434 1434 1433 1432 1431 1430 1429 1428 1427 1425 1424 1424 1424 1424 1424 1424 1424 1423 1423 1422 1421 1420
1439 1438 1437 1437 1437 1437 1437 1436 1436 1436 1435 1435 1435 1434 1434 1433 1433 1433 1432 1432 1431 1431 1430 1429 1428 1427 1427 1425 1424 1422 1421 1420 1419 1420 1420 1420 1420 1420 1420 1419 1418 1417 1416